Location: Bieujac
(44.5398°N, 0.1549°W)
Time: 01:10:15
(UTC+00:00)

NOSS 3-3 (A) - Pass Details

Date: 17 November 2019
Orbit: 848 x 1364 km, 63.4° (Epoch: 30 November)

Event Time Altitude Azimuth Distance (km) Brightness Sun altitude
Exits shadow 04:51:48 36° 231° (SW) 1,433 4.5 -22.6°
Maximum altitude 04:54:27 75° 310° (NW) 989 3.8 -22.1°
Drops below altitude 10° 05:01:06 10° 35° (NE) 2,861 6.8 -20.9°
Sets 05:03:55 0° 38° (NE) 3,899 7.6 -20.4°
